When you browse on this site, cookies collect data to enhance your experience and personalize the content and advertising you see.
Visit our Privacy Policy to learn more. By continuing to use the site, you agree to this use of cookies and data.
  • en Belgique
  • Liste des pays
  • À 7 jours
  • Température de l'eau
  • Carte météo
  • Widgets météo
  • user-avatar
    Se connecter

    Météo par heure à Ile deRodos

    Ce jour, 26 Janvier, Dimanche

    Heure Température Précipitation Vent Pression Humidité
    00:00 +7°C° 0 mm 1 m/s 742 mmHg 73%
    01:00 +7°C° 0 mm 1 m/s 742 mmHg 73%
    02:00 +7°C° 0 mm 1 m/s 742 mmHg 73%
    03:00 +7°C° 0 mm 1 m/s 741 mmHg 74%
    04:00 +7°C° 0 mm 1 m/s 741 mmHg 75%
    05:00 +7°C° 0 mm 1 m/s 741 mmHg 76%
    06:00 +7°C° 0 mm 1 m/s 741 mmHg 77%
    07:00 +8°C° 0 mm 1 m/s 741 mmHg 79%
    08:00 +8°C° 0 mm 1 m/s 741 mmHg 81%
    09:00 +10°C° 0 mm 1 m/s 741 mmHg 76%
    10:00 +12°C° 0 mm 2 m/s 742 mmHg 70%
    11:00 +14°C° 0 mm 2 m/s 742 mmHg 65%
    12:00 +15°C° 0 mm 2 m/s 741 mmHg 64%
    13:00 +14°C° 0 mm 3 m/s 741 mmHg 63%
    14:00 +16°C° 0 mm 3 m/s 740 mmHg 62%
    15:00 +14°C° 0 mm 3 m/s 740 mmHg 67%
    16:00 +13°C° 0 mm 3 m/s 740 mmHg 73%
    17:00 +12°C° 0 mm 3 m/s 740 mmHg 79%
    18:00 +12°C° 0 mm 2 m/s 740 mmHg 83%
    19:00 +10°C° 0 mm 2 m/s 740 mmHg 86%
    20:00 +9°C° 0 mm 2 m/s 740 mmHg 90%
    21:00 +9°C° 0 mm 2 m/s 740 mmHg 90%
    22:00 +8°C° 0 mm 2 m/s 740 mmHg 90%
    23:00 +8°C° 0 mm 2 m/s 740 mmHg 90%

    Demain, 27 Janvier, Lundi

    Heure Température Précipitation Vent Pression Humidité
    00:00 +8°C° 0 mm 3 m/s 739 mmHg 89%
    01:00 +9°C° 0 mm 3 m/s 739 mmHg 87%
    02:00 +9°C° 0 mm 3 m/s 739 mmHg 86%
    03:00 +8°C° 0 mm 4 m/s 739 mmHg 88%
    04:00 +8°C° 0 mm 4 m/s 738 mmHg 90%
    05:00 +10°C° 0 mm 4 m/s 738 mmHg 92%
    06:00 +10°C° 0 mm 4 m/s 738 mmHg 91%
    07:00 +10°C° 0 mm 4 m/s 738 mmHg 89%
    08:00 +10°C° 0 mm 5 m/s 738 mmHg 88%
    09:00 +10°C° 0 mm 5 m/s 738 mmHg 84%
    10:00 +11°C° 0 mm 6 m/s 738 mmHg 80%
    11:00 +13°C° 0 mm 6 m/s 738 mmHg 76%
    12:00 +13°C° 0 mm 6 m/s 738 mmHg 76%
    13:00 +13°C° 0 mm 6 m/s 737 mmHg 75%
    14:00 +13°C° 0 mm 6 m/s 737 mmHg 75%
    15:00 +13°C° 0 mm 6 m/s 737 mmHg 77%
    16:00 +11°C° 0 mm 6 m/s 736 mmHg 79%
    17:00 +11°C° 0 mm 6 m/s 736 mmHg 81%
    18:00 +11°C° 0 mm 6 m/s 736 mmHg 82%
    19:00 +11°C° 0 mm 6 m/s 736 mmHg 83%
    20:00 +10°C° 0 mm 6 m/s 736 mmHg 84%
    21:00 +10°C° 0.1 mm 6 m/s 736 mmHg 85%
    22:00 +10°C° 0.1 mm 6 m/s 736 mmHg 87%
    23:00 +10°C° 0.1 mm 6 m/s 736 mmHg 88%

    Après-demain, 28 Janvier, Mardi

    Heure Température Précipitation Vent Pression Humidité
    00:00 +10°C° 0.1 mm 7 m/s 735 mmHg 87%
    01:00 +10°C° 0.1 mm 7 m/s 735 mmHg 87%
    02:00 +10°C° 0.1 mm 7 m/s 734 mmHg 86%
    03:00 +9°C° 0.7 mm 6 m/s 734 mmHg 88%
    04:00 +9°C° 0.7 mm 6 m/s 734 mmHg 89%
    05:00 +9°C° 0.7 mm 6 m/s 733 mmHg 90%
    06:00 +9°C° 0.6 mm 5 m/s 733 mmHg 90%
    07:00 +9°C° 0.6 mm 5 m/s 733 mmHg 89%
    08:00 +8°C° 0.6 mm 5 m/s 734 mmHg 88%
    09:00 +10°C° 0.5 mm 5 m/s 734 mmHg 82%
    10:00 +11°C° 0.5 mm 6 m/s 734 mmHg 76%
    11:00 +14°C° 0.5 mm 6 m/s 734 mmHg 70%
    12:00 +14°C° 0.3 mm 6 m/s 734 mmHg 68%
    13:00 +14°C° 0.3 mm 5 m/s 733 mmHg 66%
    14:00 +15°C° 0.3 mm 5 m/s 733 mmHg 64%
    15:00 +14°C° 0 mm 5 m/s 733 mmHg 68%
    16:00 +13°C° 0 mm 5 m/s 733 mmHg 73%
    17:00 +12°C° 0 mm 5 m/s 733 mmHg 78%
    18:00 +10°C° 0 mm 5 m/s 733 mmHg 81%
    19:00 +10°C° 0 mm 5 m/s 734 mmHg 83%
    20:00 +9°C° 0 mm 5 m/s 734 mmHg 86%
    21:00 +10°C° 0 mm 4 m/s 734 mmHg 86%
    22:00 +8°C° 0 mm 4 m/s 734 mmHg 86%
    23:00 +8°C° 0 mm 4 m/s 734 mmHg 86%

    29 Janvier, Mercredi

    Heure Température Précipitation Vent Pression Humidité
    00:00 +8°C° 0 mm 4 m/s 734 mmHg 87%
    01:00 +8°C° 0 mm 4 m/s 734 mmHg 88%
    02:00 +7°C° 0 mm 4 m/s 734 mmHg 88%
    03:00 +8°C° 0 mm 5 m/s 734 mmHg 87%
    04:00 +9°C° 0 mm 5 m/s 734 mmHg 85%
    05:00 +10°C° 0 mm 5 m/s 734 mmHg 83%
    06:00 +10°C° 0.1 mm 6 m/s 734 mmHg 83%
    07:00 +10°C° 0.1 mm 6 m/s 734 mmHg 83%
    08:00 +10°C° 0.1 mm 6 m/s 735 mmHg 83%
    09:00 +11°C° 0.1 mm 6 m/s 735 mmHg 78%
    10:00 +13°C° 0.1 mm 6 m/s 735 mmHg 74%
    11:00 +14°C° 0.1 mm 6 m/s 735 mmHg 70%
    12:00 +14°C° 0.1 mm 5 m/s 735 mmHg 65%
    13:00 +15°C° 0.1 mm 5 m/s 734 mmHg 61%
    14:00 +15°C° 0.1 mm 5 m/s 734 mmHg 56%
    15:00 +14°C° 0 mm 4 m/s 734 mmHg 64%
    16:00 +13°C° 0 mm 4 m/s 734 mmHg 71%
    17:00 +12°C° 0 mm 3 m/s 734 mmHg 78%
    18:00 +11°C° 0 mm 3 m/s 734 mmHg 81%
    19:00 +10°C° 0 mm 3 m/s 734 mmHg 85%
    20:00 +9°C° 0 mm 3 m/s 734 mmHg 88%
    21:00 +9°C° 0.1 mm 3 m/s 734 mmHg 88%
    22:00 +9°C° 0.1 mm 3 m/s 734 mmHg 88%
    23:00 +9°C° 0.1 mm 3 m/s 734 mmHg 88%

    30 Janvier, Jeudi

    Heure Température Précipitation Vent Pression Humidité
    00:00 +10°C° 0 mm 3 m/s 734 mmHg 85%
    01:00 +10°C° 0 mm 3 m/s 733 mmHg 83%
    02:00 +10°C° 0 mm 3 m/s 733 mmHg 80%
    03:00 +10°C° 0.1 mm 3 m/s 733 mmHg 82%
    04:00 +10°C° 0.1 mm 3 m/s 733 mmHg 84%
    05:00 +11°C° 0.1 mm 4 m/s 733 mmHg 85%
    06:00 +11°C° 0.2 mm 4 m/s 733 mmHg 86%
    07:00 +9°C° 0.2 mm 5 m/s 733 mmHg 87%
    08:00 +9°C° 0.2 mm 6 m/s 733 mmHg 87%
    09:00 +11°C° 0.1 mm 6 m/s 733 mmHg 80%
    10:00 +12°C° 0.1 mm 7 m/s 733 mmHg 73%
    11:00 +13°C° 0.1 mm 8 m/s 733 mmHg 66%
    12:00 +13°C° 0.1 mm 8 m/s 733 mmHg 66%
    13:00 +13°C° 0.1 mm 8 m/s 732 mmHg 65%
    14:00 +13°C° 0.1 mm 9 m/s 732 mmHg 65%
    15:00 +12°C° 0.1 mm 9 m/s 731 mmHg 67%
    16:00 +12°C° 0.1 mm 9 m/s 731 mmHg 69%
    17:00 +11°C° 0.1 mm 9 m/s 731 mmHg 70%
    18:00 +10°C° 0 mm 8 m/s 731 mmHg 72%
    19:00 +10°C° 0 mm 8 m/s 731 mmHg 74%
    20:00 +9°C° 0 mm 8 m/s 731 mmHg 76%
    21:00 +9°C° 0.2 mm 8 m/s 731 mmHg 80%
    22:00 +9°C° 0.2 mm 8 m/s 731 mmHg 83%
    23:00 +7°C° 0.2 mm 8 m/s 730 mmHg 87%

    31 Janvier, Vendredi

    Heure Température Précipitation Vent Pression Humidité
    00:00 +7°C° 0.5 mm 9 m/s 730 mmHg 85%
    01:00 +8°C° 0.5 mm 10 m/s 730 mmHg 83%
    02:00 +8°C° 0.5 mm 11 m/s 729 mmHg 81%
    03:00 +7°C° 0.1 mm 12 m/s 729 mmHg 78%
    04:00 +6°C° 0.1 mm 14 m/s 729 mmHg 75%
    05:00 +5°C° 0.1 mm 16 m/s 730 mmHg 72%
    06:00 +5°C° 0 mm 16 m/s 730 mmHg 67%
    07:00 +4°C° 0 mm 16 m/s 731 mmHg 63%
    08:00 +2°C° 0 mm 17 m/s 731 mmHg 59%
    09:00 +3°C° 0 mm 17 m/s 732 mmHg 56%
    10:00 +5°C° 0 mm 16 m/s 732 mmHg 52%
    11:00 +5°C° 0 mm 16 m/s 733 mmHg 49%
    12:00 +6°C° 0 mm 15 m/s 733 mmHg 48%
    13:00 +6°C° 0 mm 14 m/s 732 mmHg 47%
    14:00 +7°C° 0 mm 13 m/s 732 mmHg 46%
    15:00 +7°C° 0 mm 13 m/s 732 mmHg 49%
    16:00 +5°C° 0 mm 12 m/s 733 mmHg 52%
    17:00 +6°C° 0 mm 11 m/s 733 mmHg 55%
    18:00 +5°C° 0 mm 10 m/s 733 mmHg 56%
    19:00 +5°C° 0 mm 10 m/s 734 mmHg 58%
    20:00 +3°C° 0 mm 9 m/s 734 mmHg 59%
    21:00 +3°C° 0 mm 9 m/s 734 mmHg 57%
    22:00 +4°C° 0 mm 8 m/s 735 mmHg 56%
    23:00 +4°C° 0 mm 8 m/s 735 mmHg 54%
    Voir plus